User: anonymous
Location: Caltech
(34.1382°N, 118.1253°W)
Time: 06:42:57
(UTC-07:00)
Language:

CZ-2C R/B - Orbit

View from above orbital plane
View from above orbital plane
View from above satellite
View from above satellite

Ground track
Ground track

The orbit data is extracted from the following two-line orbital elements,

1 36089U 09061B   14106.15574583  .00000273  00000-0  80144-4 0  3034
2 36089 098.1118 141.4546 0082540 010.5400 030.6693 14.49132424233953
Epoch (UTC): 16 April 2014 03:44:16
Eccentricity: 0.0082540
inclination: 98.1118°
perigee height: 670 km
apogee height: 787 km
right ascension of ascending node: 141.4546°
argument of perigee: 10.5400°
revolutions per day: 14.49132424
mean anomaly at epoch: 30.6693°
orbit number at epoch: 23395

The dashed part of the orbit path shows where the satellite is in the earth's shadow,  

DLR